�N����,����,�~����,�C��,���x,�C��,����,���ϕ���,�ő�u�ԕ���,�ő厞����,���˗�,�I�_���x,�n�����x,�ő啗���N��,DTYPE
"23/03/07","00:10",0.0,3.9,79.4,1016.4,315.9,1.6,2.0,318.2,0.00,0.7,9.5,"00:05:26",1
"23/03/07","00:20",0.0,3.8,79.8,1016.8,326.1,1.5,1.9,309.8,0.00,0.7,9.5,"00:19:58",1
"23/03/07","00:30",0.0,3.5,80.0,1016.6,314.7,1.8,2.1,322.1,0.00,0.4,9.5,"00:26:32",1
"23/03/07","00:40",0.0,3.5,80.4,1016.6,296.4,1.6,2.8,316.4,0.00,0.5,9.2,"00:31:58",1
"23/03/07","00:50",0.0,3.6,80.5,1016.6,303.7,0.7,1.4,324.3,0.00,0.6,9.4,"00:44:22",1
"23/03/07","01:00",0.0,3.4,80.8,1016.4,298.0,1.7,2.5,322.6,0.00,0.5,9.3,"00:59:14",1
"23/03/07","01:10",0.0,3.3,81.4,1016.6,334.9,1.7,2.8,319.6,0.00,0.5,9.2,"01:06:12",1
"23/03/07","01:20",0.0,3.3,81.8,1016.8,289.6,1.3,1.9,318.6,0.00,0.5,9.2,"01:15:22",1
"23/03/07","01:30",0.0,3.4,81.8,1016.8,291.3,1.5,1.7,314.6,0.00,0.6,9.1,"01:27:48",1
"23/03/07","01:40",0.0,3.3,81.6,1017.1,301.1,1.1,2.0,324.4,0.00,0.5,9.1,"01:38:08",1
"23/03/07","01:50",0.0,3.0,81.7,1016.8,288.1,0.6,1.3,312.2,0.00,0.2,9.1,"01:42:16",1
"23/03/07","02:00",0.0,2.6,81.9,1016.6,280.0,0.6,1.1,311.2,0.00,-0.1,8.9,"01:58:56",1
"23/03/07","02:10",0.0,2.5,82.1,1016.8,293.6,1.1,1.9,325.4,0.00,-0.2,8.8,"02:07:36",1
"23/03/07","02:20",0.0,2.4,82.7,1016.6,316.9,1.6,2.0,328.4,0.00,-0.2,8.8,"02:19:40",1
"23/03/07","02:30",0.0,2.3,83.1,1016.4,321.0,2.1,2.6,332.6,0.00,-0.2,8.7,"02:20:16",1
"23/03/07","02:40",0.0,2.2,83.5,1016.6,293.0,0.7,1.0,310.7,0.00,-0.3,8.7,"02:30:58",1
"23/03/07","02:50",0.0,2.0,84.1,1016.8,300.3,1.2,2.1,310.5,0.00,-0.4,8.7,"02:49:18",1
"23/03/07","03:00",0.0,2.1,84.4,1016.6,307.8,1.0,2.2,316.2,0.00,-0.2,8.5,"02:50:50",1
"23/03/07","03:10",0.0,2.0,84.7,1016.8,316.4,1.7,2.5,322.6,0.00,-0.3,8.6,"03:06:06",1
"23/03/07","03:20",0.0,1.9,85.2,1016.8,314.5,1.6,2.1,331.3,0.00,-0.3,8.4,"03:10:14",1
"23/03/07","03:30",0.0,1.8,85.5,1016.4,299.4,1.1,1.8,313.1,0.00,-0.3,8.5,"03:25:46",1
"23/03/07","03:40",0.0,2.0,85.7,1016.4,288.3,1.7,2.1,270.9,0.00,-0.1,8.5,"03:38:50",1
"23/03/07","03:50",0.0,2.3,85.4,1016.8,301.7,1.5,2.4,293.8,0.00,0.1,8.3,"03:44:46",1
"23/03/07","04:00",0.0,1.9,85.1,1016.6,313.9,1.7,2.5,310.6,0.00,-0.3,8.2,"03:54:34",1
"23/03/07","04:10",0.0,1.7,85.2,1016.8,300.4,1.2,2.0,322.8,0.00,-0.5,8.2,"04:07:10",1
"23/03/07","04:20",0.0,1.9,85.3,1016.4,312.2,2.2,2.6,318.4,0.00,-0.3,8.2,"04:10:40",1
"23/03/07","04:30",0.0,2.1,85.1,1016.6,288.8,1.5,2.2,294.9,0.00,-0.1,8.4,"04:27:02",1
"23/03/07","04:40",0.0,2.1,84.7,1016.6,282.0,0.2,0.8,281.0,0.00,-0.2,8.1,"04:36:50",1
"23/03/07","04:50",0.0,2.1,84.3,1016.6,312.3,0.8,2.0,315.2,0.00,-0.2,8.1,"04:49:36",1
"23/03/07","05:00",0.0,1.7,84.4,1016.8,314.6,2.0,2.6,331.3,0.00,-0.6,8.1,"04:59:22",1
"23/03/07","05:10",0.0,1.3,85.0,1016.8,326.1,2.2,2.8,321.8,0.00,-0.9,8.1,"05:07:28",1
"23/03/07","05:20",0.0,1.2,85.7,1016.8,308.9,1.7,2.1,317.7,0.00,-0.9,8.0,"05:12:40",1
"23/03/07","05:30",0.0,1.5,86.2,1017.1,306.6,2.0,2.9,317.1,0.00,-0.5,8.0,"05:28:42",1
"23/03/07","05:40",0.0,1.6,86.2,1016.8,315.7,1.7,2.4,314.7,0.00,-0.4,7.8,"05:30:22",1
"23/03/07","05:50",0.0,1.4,86.2,1017.3,294.6,1.2,1.6,320.9,0.00,-0.6,7.8,"05:41:16",1
"23/03/07","06:00",0.0,1.1,86.3,1016.8,311.9,1.2,1.9,315.6,0.00,-0.9,7.9,"05:56:08",1
"23/03/07","06:10",0.0,1.0,86.5,1017.1,317.0,1.5,2.2,327.1,0.00,-1.0,7.7,"06:08:08",1
"23/03/07","06:20",0.0,0.8,86.7,1016.8,322.3,1.5,2.0,325.0,0.00,-1.1,7.8,"06:10:16",1
"23/03/07","06:30",0.0,0.8,87.1,1017.1,296.3,1.3,1.8,313.0,0.00,-1.1,7.8,"06:26:24",1
"23/03/07","06:40",0.0,0.8,87.3,1017.1,321.7,1.6,2.1,321.2,0.00,-1.0,7.7,"06:34:48",1
"23/03/07","06:50",0.0,0.8,87.6,1017.3,320.7,1.6,2.0,318.8,0.00,-1.0,7.5,"06:47:12",1
"23/03/07","07:00",0.0,0.8,87.8,1017.1,317.5,1.6,2.0,323.4,0.00,-0.9,7.4,"06:58:48",1
"23/03/07","07:10",0.0,0.8,88.1,1017.3,328.2,1.3,2.1,325.6,0.00,-0.9,7.5,"07:00:16",1
"23/03/07","07:20",0.0,1.0,88.3,1017.1,316.3,1.3,1.9,328.3,0.00,-0.7,7.5,"07:10:08",1
"23/03/07","07:30",0.0,1.0,88.5,1017.3,292.7,1.2,1.8,304.5,0.00,-0.6,7.4,"07:23:54",1
"23/03/07","07:40",0.0,1.1,88.6,1017.5,275.2,0.8,1.1,283.8,0.00,-0.5,7.4,"07:34:04",1
"23/03/07","07:50",0.0,1.5,88.9,1017.8,290.1,1.0,1.4,310.3,0.01,-0.1,7.3,"07:47:24",1
"23/03/07","08:00",0.0,2.4,88.6,1018.0,315.4,1.7,2.6,321.1,0.03,0.8,7.5,"07:57:06",1
"23/03/07","08:10",0.0,3.3,87.7,1018.5,212.1,0.5,1.3,286.8,0.04,1.5,7.4,"08:00:48",1
"23/03/07","08:20",0.0,4.1,86.9,1019.0,119.0,0.3,1.0,303.4,0.07,2.2,7.3,"08:16:48",1
"23/03/07","08:30",0.0,4.9,84.8,1019.0,138.3,0.5,1.1,317.5,0.09,2.6,7.5,"08:20:16",1
"23/03/07","08:40",0.0,6.2,82.8,1019.4,284.9,0.7,1.0,284.1,0.12,3.5,7.2,"08:35:48",1
"23/03/07","08:50",0.0,7.1,78.7,1020.1,280.0,0.6,1.3,320.3,0.14,3.7,7.3,"08:42:58",1
"23/03/07","09:00",0.0,7.6,74.1,1020.4,249.4,0.3,0.6,167.0,0.17,3.3,7.4,"08:51:44",1
"23/03/07","09:10",0.0,8.2,69.9,1020.6,188.2,0.3,1.0,140.5,0.20,3.1,7.2,"09:06:00",1
"23/03/07","09:20",0.0,8.7,66.8,1020.6,227.9,0.5,1.1,274.5,0.23,2.9,7.2,"09:12:58",1
"23/03/07","09:30",0.0,9.3,65.3,1020.6,247.6,0.6,1.4,241.3,0.26,3.2,7.5,"09:25:22",1
"23/03/07","09:40",0.0,10.0,62.9,1020.6,274.1,0.6,1.3,303.2,0.28,3.3,7.3,"09:38:02",1
"23/03/07","09:50",0.0,10.6,59.5,1020.4,240.4,0.6,1.8,215.0,0.31,3.1,7.0,"09:40:40",1
"23/03/07","10:00",0.0,10.8,55.6,1020.6,175.9,0.8,2.0,234.6,0.34,2.3,7.5,"09:52:16",1
"23/03/07","10:10",0.0,10.8,53.4,1020.6,144.5,1.0,2.4,137.8,0.36,1.8,7.5,"10:01:52",1
"23/03/07","10:20",0.0,11.4,53.2,1020.4,203.4,1.1,2.1,156.7,0.39,2.3,7.8,"10:14:08",1
"23/03/07","10:30",0.0,11.9,52.0,1020.4,176.4,0.8,2.5,132.8,0.41,2.4,7.6,"10:24:16",1
"23/03/07","10:40",0.0,12.3,51.6,1020.4,206.2,1.2,2.5,192.9,0.43,2.7,7.8,"10:37:12",1
"23/03/07","10:50",0.0,12.7,51.3,1019.9,192.3,1.0,2.1,179.1,0.44,3.0,7.8,"10:44:16",1
"23/03/07","11:00",0.0,12.8,50.0,1020.1,185.8,1.5,2.9,192.4,0.46,2.7,8.0,"10:52:32",1
"23/03/07","11:10",0.0,13.0,49.7,1019.7,177.9,1.6,3.3,130.6,0.48,2.8,8.0,"11:05:44",1
"23/03/07","11:20",0.0,13.3,49.3,1019.9,177.3,1.6,3.4,201.1,0.49,2.9,8.1,"11:18:48",1
"23/03/07","11:30",0.0,13.6,49.9,1019.7,206.2,2.0,3.2,193.8,0.50,3.4,8.1,"11:22:24",1
"23/03/07","11:40",0.0,14.3,50.1,1019.4,198.0,1.6,3.7,200.8,0.52,4.1,8.3,"11:31:20",1
"23/03/07","11:50",0.0,14.4,48.2,1019.2,170.8,1.8,3.6,159.9,0.53,3.6,8.2,"11:48:32",1
"23/03/07","12:00",0.0,14.6,47.0,1019.0,185.2,1.6,3.7,124.3,0.54,3.5,8.4,"11:59:24",1
"23/03/07","12:10",0.0,15.0,46.2,1019.2,169.3,1.7,3.4,132.4,0.54,3.6,8.5,"12:05:36",1
"23/03/07","12:20",0.0,15.3,46.6,1019.0,142.2,1.7,3.5,119.2,0.54,4.0,8.6,"12:19:14",1
"23/03/07","12:30",0.0,15.2,46.6,1019.0,128.5,2.5,3.7,101.2,0.55,3.9,8.9,"12:20:48",1
"23/03/07","12:40",0.0,15.6,44.8,1018.2,140.3,1.7,3.5,120.1,0.55,3.7,9.0,"12:33:22",1
"23/03/07","12:50",0.0,16.4,44.1,1018.2,205.0,1.6,4.0,226.6,0.55,4.2,9.0,"12:47:04",1
"23/03/07","13:00",0.0,16.9,44.1,1018.2,163.7,1.5,3.1,200.9,0.54,4.7,9.2,"12:57:28",1
"23/03/07","13:10",0.0,16.9,44.4,1018.2,150.4,2.1,4.0,194.9,0.54,4.7,9.2,"13:02:16",1
"23/03/07","13:20",0.0,17.2,42.9,1017.8,142.2,2.2,5.0,118.9,0.53,4.5,9.5,"13:16:56",1
"23/03/07","13:30",0.0,17.4,41.0,1017.5,175.5,2.0,3.7,236.3,0.53,4.1,9.3,"13:20:02",1
"23/03/07","13:40",0.0,17.7,40.8,1017.1,237.0,1.8,3.4,236.4,0.52,4.3,9.7,"13:30:08",1
"23/03/07","13:50",0.0,18.0,39.3,1017.1,205.2,1.7,3.6,232.5,0.51,4.0,9.7,"13:48:16",1
"23/03/07","14:00",0.0,18.2,38.6,1016.8,194.1,2.1,4.4,236.2,0.50,3.9,9.7,"13:53:28",1
"23/03/07","14:10",0.0,18.2,38.1,1016.4,140.9,2.3,3.7,130.1,0.50,3.7,10.1,"14:06:08",1
"23/03/07","14:20",0.0,18.4,38.4,1016.4,156.4,2.3,4.4,131.3,0.48,4.0,10.0,"14:12:40",1
"23/03/07","14:30",0.0,18.3,37.5,1016.6,177.1,3.0,4.9,209.8,0.46,3.6,10.1,"14:27:28",1
"23/03/07","14:40",0.0,18.7,38.6,1016.6,151.2,2.3,4.3,119.9,0.45,4.4,10.4,"14:36:00",1
"23/03/07","14:50",0.0,18.5,38.2,1016.4,197.8,2.6,4.7,198.4,0.43,4.0,10.5,"14:41:04",1
"23/03/07","15:00",0.0,18.5,37.9,1016.1,158.9,3.1,6.2,187.0,0.41,3.9,10.5,"14:50:48",1
"23/03/07","15:10",0.0,18.3,38.5,1016.4,168.5,3.0,6.5,147.7,0.39,4.0,10.6,"15:02:32",1
"23/03/07","15:20",0.0,18.5,38.1,1016.1,168.8,2.6,4.9,140.9,0.37,4.0,10.7,"15:16:32",1
"23/03/07","15:30",0.0,18.5,38.8,1015.9,165.7,2.6,4.7,202.3,0.35,4.3,10.6,"15:20:40",1
"23/03/07","15:40",0.0,18.7,38.3,1016.1,200.3,2.0,4.4,188.5,0.33,4.3,10.7,"15:34:56",1
"23/03/07","15:50",0.0,18.6,38.1,1015.9,184.6,2.3,5.2,136.1,0.30,4.1,10.7,"15:41:28",1
"23/03/07","16:00",0.0,18.6,39.6,1016.1,168.8,2.5,5.0,168.2,0.28,4.6,11.0,"15:51:44",1
"23/03/07","16:10",0.0,18.4,38.7,1016.1,201.6,2.2,4.5,223.4,0.25,4.1,11.0,"16:02:16",1
"23/03/07","16:20",0.0,18.2,38.5,1015.6,179.4,2.5,4.8,123.2,0.23,3.9,11.0,"16:16:16",1
"23/03/07","16:30",0.0,18.2,39.8,1015.6,192.9,2.2,4.2,149.8,0.20,4.4,11.0,"16:21:28",1
"23/03/07","16:40",0.0,17.8,39.2,1015.9,190.6,2.8,5.6,229.8,0.17,3.8,11.1,"16:31:20",1
"23/03/07","16:50",0.0,17.8,39.7,1016.1,189.4,2.1,4.2,180.0,0.15,4.0,11.3,"16:43:36",1
"23/03/07","17:00",0.0,17.8,40.1,1015.9,193.7,2.0,3.7,191.3,0.12,4.1,11.3,"16:53:12",1
"23/03/07","17:10",0.0,17.5,40.2,1016.1,200.4,2.2,3.5,215.4,0.10,3.9,11.3,"17:08:16",1
"23/03/07","17:20",0.0,17.4,40.3,1016.1,208.4,1.6,3.5,196.5,0.08,3.8,11.4,"17:13:28",1
"23/03/07","17:30",0.0,17.3,40.6,1016.1,195.4,1.5,2.8,236.3,0.06,3.8,11.3,"17:22:32",1
"23/03/07","17:40",0.0,17.0,41.1,1015.9,180.4,1.6,3.5,165.7,0.04,3.7,11.3,"17:35:44",1
"23/03/07","17:50",0.0,16.6,41.1,1015.9,186.1,1.5,2.8,157.9,0.03,3.4,11.5,"17:40:16",1
"23/03/07","18:00",0.0,16.3,42.4,1016.6,227.5,1.5,2.6,222.9,0.01,3.6,11.4,"17:55:44",1
"23/03/07","18:10",0.0,15.7,44.3,1016.4,243.9,1.1,2.1,259.2,0.00,3.6,11.3,"18:00:08",1
"23/03/07","18:20",0.0,15.5,47.5,1016.8,281.1,1.0,1.8,320.7,0.00,4.4,11.3,"18:18:32",1
"23/03/07","18:30",0.0,14.5,52.7,1016.6,309.3,1.8,2.6,312.9,0.00,5.0,11.4,"18:29:04",1
"23/03/07","18:40",0.0,13.7,55.4,1016.6,305.1,1.0,2.1,307.6,0.00,5.0,11.1,"18:39:06",1
"23/03/07","18:50",0.0,12.9,58.3,1017.1,294.2,2.0,2.2,308.8,0.00,5.0,11.2,"18:44:56",1
"23/03/07","19:00",0.0,12.2,60.0,1016.8,311.3,2.1,3.1,302.9,0.00,4.7,11.2,"18:50:24",1
"23/03/07","19:10",0.0,11.6,62.4,1016.8,315.8,1.7,2.1,326.8,0.00,4.7,11.2,"19:04:10",1
"23/03/07","19:20",0.0,11.3,63.8,1016.8,291.2,1.8,2.5,295.0,0.00,4.7,11.1,"19:19:10",1
"23/03/07","19:30",0.0,11.2,64.4,1017.1,311.0,2.2,2.7,316.7,0.00,4.8,11.0,"19:25:42",1
"23/03/07","19:40",0.0,10.8,64.7,1017.1,315.8,2.2,3.1,321.3,0.00,4.5,11.0,"19:33:02",1
"23/03/07","19:50",0.0,10.6,65.4,1017.1,314.1,1.8,3.2,312.2,0.00,4.4,11.2,"19:48:22",1
"23/03/07","20:00",0.0,10.5,65.8,1017.5,304.2,1.8,2.7,323.9,0.00,4.4,10.9,"19:50:08",1
"23/03/07","20:10",0.0,10.5,65.9,1017.3,282.3,2.1,2.8,316.9,0.00,4.4,10.7,"20:00:48",1
"23/03/07","20:20",0.0,10.2,66.2,1017.5,299.4,2.2,2.7,290.1,0.00,4.2,10.8,"20:15:28",1
"23/03/07","20:30",0.0,10.0,66.7,1017.5,290.7,2.1,2.7,310.7,0.00,4.1,11.0,"20:20:32",1
"23/03/07","20:40",0.0,9.8,67.1,1018.0,293.5,2.0,2.5,305.4,0.00,4.0,10.8,"20:36:48",1
"23/03/07","20:50",0.0,9.5,67.5,1018.0,292.6,1.6,2.8,311.4,0.00,3.8,10.5,"20:49:52",1
"23/03/07","21:00",0.0,9.1,68.4,1017.8,303.4,2.0,2.2,308.7,0.00,3.6,10.7,"20:59:44",1
"23/03/07","21:10",0.0,8.8,69.2,1017.8,294.7,1.8,2.6,311.2,0.00,3.5,10.7,"21:09:00",1
"23/03/07","21:20",0.0,8.6,70.2,1017.5,294.5,2.2,2.7,314.3,0.00,3.5,10.6,"21:10:40",1
"23/03/07","21:30",0.0,8.4,70.6,1017.5,307.3,2.3,3.2,318.7,0.00,3.4,10.6,"21:25:12",1
"23/03/07","21:40",0.0,7.9,71.5,1018.0,309.2,2.1,2.9,321.7,0.00,3.1,10.7,"21:39:12",1
"23/03/07","21:50",0.0,7.9,71.9,1017.8,314.1,2.2,2.7,302.8,0.00,3.2,10.5,"21:40:48",1
"23/03/07","22:00",0.0,7.5,72.2,1017.8,311.5,1.7,2.7,320.2,0.00,2.9,10.1,"21:56:16",1
"23/03/07","22:10",0.0,7.1,73.0,1017.8,324.1,2.2,3.1,320.3,0.00,2.6,10.1,"22:01:44",1
"23/03/07","22:20",0.0,7.2,73.6,1017.5,287.1,2.3,3.4,258.9,0.00,2.8,10.3,"22:17:04",1
"23/03/07","22:30",0.0,7.5,73.5,1018.2,309.7,2.3,3.1,322.0,0.00,3.1,10.2,"22:29:12",1
"23/03/07","22:40",0.0,6.9,73.8,1018.2,314.1,1.8,2.7,319.7,0.00,2.6,10.2,"22:38:50",1
"23/03/07","22:50",0.0,6.7,74.5,1017.8,315.8,2.2,3.2,335.8,0.00,2.5,10.1,"22:48:00",1
"23/03/07","23:00",0.0,6.3,75.2,1017.8,326.0,2.0,2.6,321.6,0.00,2.3,10.0,"22:56:10",1
"23/03/07","23:10",0.0,6.1,76.3,1017.5,327.4,2.0,2.7,317.9,0.00,2.3,9.9,"23:09:52",1
"23/03/07","23:20",0.0,5.8,77.0,1017.8,318.4,2.1,2.6,324.7,0.00,2.1,9.7,"23:10:16",1
"23/03/07","23:30",0.0,5.7,77.6,1018.0,303.7,1.8,2.2,319.8,0.00,2.1,10.1,"23:24:40",1
"23/03/07","23:40",0.0,5.6,78.0,1017.8,309.2,1.0,2.2,323.4,0.00,2.1,9.7,"23:38:26",1
"23/03/07","23:50",0.0,5.1,78.8,1017.5,327.9,2.2,2.5,330.2,0.00,1.8,9.7,"23:41:00",1
"23/03/07","24:00",0.0,5.0,79.8,1018.0,328.2,2.2,2.4,334.9,0.00,1.8,9.7,"23:50:20",1
